timestamp,surface_pressure_avg,surface_temp_avg,battery_voltage,lat,long
2021-02-22 00:09:01+00:00,240.6365,1.0,12.89,47.84626,-54.09684
2021-02-22 00:19:01+00:00,240.9615,0.97,12.57,47.84626,-54.09684
2021-02-22 00:29:01+00:00,242.5597,1.0,12.57,47.84626,-54.09684
2021-02-22 00:39:01+00:00,242.6731,0.9,12.57,47.84626,-54.09684
2021-02-22 00:49:01+00:00,238.9781,0.9,12.57,47.84626,-54.09684
2021-02-22 00:59:01+00:00,239.6346,0.81,12.57,47.84626,-54.09684
2021-02-22 01:09:01+00:00,238.1997,0.82,12.57,47.84626,-54.09684
2021-02-22 01:19:01+00:00,237.9648,0.8,12.57,47.84626,-54.09684
2021-02-22 01:29:01+00:00,237.5297,0.8,12.57,47.84626,-54.09684
2021-02-22 01:39:01+00:00,238.4914,0.86,12.57,47.84626,-54.09684
2021-02-22 01:49:01+00:00,236.8098,0.96,12.57,47.84626,-54.09684
2021-02-22 01:59:01+00:00,237.8281,1.0,12.57,47.84626,-54.09684
2021-02-22 02:09:01+00:00,239.8765,1.0,12.57,47.84626,-54.09684
2021-02-22 02:19:01+00:00,242.2581,1.0,12.49,47.84626,-54.09684
2021-02-22 02:29:01+00:00,240.7864,1.0,12.49,47.84626,-54.09684
2021-02-22 02:39:01+00:00,241.1747,1.0,12.49,47.84626,-54.09684
2021-02-22 02:49:01+00:00,244.3965,1.0,12.49,47.84626,-54.09684
2021-02-22 02:59:01+00:00,248.7798,1.0,12.49,47.84626,-54.09684
2021-02-22 03:09:01+00:00,250.1497,0.99,12.49,47.84626,-54.09684
2021-02-22 03:19:01+00:00,252.0131,0.9,12.49,47.84626,-54.09684
2021-02-22 03:29:01+00:00,256.9281,0.9,12.49,47.84626,-54.09684
2021-02-22 03:39:01+00:00,265.0247,0.92,12.49,47.84626,-54.09684
2021-02-22 03:49:01+00:00,267.1264,0.96,12.49,47.84626,-54.09684
2021-02-22 03:59:01+00:00,267.4797,0.94,12.49,47.84626,-54.09684
2021-02-22 04:09:01+00:00,271.8347,0.94,12.49,47.84626,-54.09684
2021-02-22 04:19:01+00:00,278.6364,0.9,12.49,47.84626,-54.09684
2021-02-22 04:29:01+00:00,277.7047,0.9,12.49,47.84626,-54.09684
2021-02-22 04:39:01+00:00,278.0081,0.9,12.49,47.84626,-54.09684
2021-02-22 04:49:01+00:00,285.063,0.9,12.49,47.84626,-54.09684
2021-02-22 04:59:01+00:00,293.6414,0.8,12.49,47.84626,-54.09684
2021-02-22 05:09:01+00:00,291.858,0.8,12.49,47.84626,-54.09684
2021-02-22 05:19:01+00:00,293.9814,0.8,12.41,47.84626,-54.09684
2021-02-22 05:29:01+00:00,300.8597,0.86,12.41,47.84626,-54.09684
2021-02-22 05:39:01+00:00,306.8197,0.85,12.41,47.84626,-54.09684
2021-02-22 05:49:01+00:00,305.938,0.82,12.41,47.84626,-54.09684
2021-02-22 05:59:01+00:00,311.6763,0.8,12.41,47.84626,-54.09684
2021-02-22 06:09:01+00:00,320.7447,0.8,12.41,47.84626,-54.09684
2021-02-22 06:19:01+00:00,323.223,0.8,12.41,47.84626,-54.09684
2021-02-22 06:29:01+00:00,324.0464,0.79,12.41,47.84626,-54.09684
2021-02-22 06:39:01+00:00,332.6163,0.77,12.41,47.84626,-54.09684
2021-02-22 06:49:01+00:00,335.0096,0.74,12.41,47.84626,-54.09684
2021-02-22 06:59:01+00:00,332.0413,0.74,12.41,47.84626,-54.09684
2021-02-22 07:09:01+00:00,335.8246,0.7,12.41,47.84626,-54.09684
2021-02-22 07:19:01+00:00,341.8564,0.7,12.41,47.84626,-54.09684
2021-02-22 07:29:01+00:00,337.9564,0.7,12.41,47.84626,-54.09684
2021-02-22 07:39:01+00:00,335.0181,0.7,12.41,47.84626,-54.09684
2021-02-22 07:49:01+00:00,341.708,0.7,12.41,47.84626,-54.09684
2021-02-22 07:59:01+00:00,345.1597,0.7,12.41,47.84626,-54.09684
2021-02-22 08:09:01+00:00,338.7729,0.7,12.41,47.84626,-54.09684
2021-02-22 08:19:01+00:00,336.7896,0.7,12.41,47.84626,-54.09684
2021-02-22 08:29:01+00:00,340.773,0.7,12.41,47.84626,-54.09684
2021-02-22 08:39:01+00:00,335.9380000000001,0.7,12.41,47.84626,-54.09684
2021-02-22 08:49:01+00:00,327.9012,0.7,12.41,47.84626,-54.09684
2021-02-22 08:59:01+00:00,324.1163,0.7,12.41,47.84626,-54.09684
2021-02-22 09:09:01+00:00,325.8347,0.7,12.41,47.84626,-54.09684
2021-02-22 09:19:01+00:00,321.003,0.7,12.33,47.84626,-54.09684
2021-02-22 09:29:01+00:00,314.3947,0.7,12.33,47.84626,-54.09684
2021-02-22 09:39:01+00:00,313.2764,0.71,12.33,47.84626,-54.09684
2021-02-22 09:49:01+00:00,311.4714,0.71,12.33,47.84626,-54.09684
2021-02-22 09:59:01+00:00,305.5296,0.7,12.33,47.84626,-54.09684
2021-02-22 10:09:01+00:00,301.1481,0.7,12.33,47.84626,-54.09684
2021-02-22 10:19:01+00:00,297.573,0.7,12.33,47.84626,-54.09684
2021-02-22 10:29:01+00:00,293.2996,0.7,12.33,47.84626,-54.09684
2021-02-22 10:39:01+00:00,289.9197,0.7,12.33,47.84626,-54.09684
2021-02-22 10:49:01+00:00,284.9314,0.7,12.33,47.84626,-54.09684
2021-02-22 10:59:01+00:00,280.4397,0.7,12.33,47.84626,-54.09684
2021-02-22 11:09:01+00:00,278.7363,0.7,12.33,47.84626,-54.09684
2021-02-22 11:19:01+00:00,278.053,0.69,12.81,47.84626,-54.09684
2021-02-22 11:29:01+00:00,275.1131,0.63,12.81,47.84626,-54.09684
2021-02-22 11:39:01+00:00,270.5598,0.65,12.81,47.84626,-54.09684
2021-02-22 11:49:01+00:00,268.4764,0.68,12.81,47.84626,-54.09684
2021-02-22 11:59:01+00:00,268.5897,0.7,12.81,47.84626,-54.09684
2021-02-22 12:09:01+00:00,264.4414,0.7,12.81,47.84626,-54.09684
2021-02-22 12:19:01+00:00,258.423,0.7,14.32,47.84626,-54.09684
2021-02-22 12:29:01+00:00,257.3081,0.7,14.32,47.84626,-54.09684
2021-02-22 12:39:01+00:00,258.163,0.7,14.32,47.84626,-54.09684
2021-02-22 12:49:01+00:00,253.0914,0.7,14.32,47.84626,-54.09684
2021-02-22 12:59:01+00:00,248.2065,0.69,14.32,47.84626,-54.09684
2021-02-22 13:09:01+00:00,249.2048,0.69,14.32,47.84626,-54.09684
2021-02-22 13:19:01+00:00,251.6263,0.68,15.2,47.84626,-54.09684
2021-02-22 13:29:01+00:00,249.5631,0.67,15.2,47.84626,-54.09684
2021-02-22 13:39:01+00:00,247.1831,0.66,15.2,47.84626,-54.09684
2021-02-22 13:49:01+00:00,245.3665,0.66,15.2,47.84626,-54.09684
2021-02-22 13:59:01+00:00,243.343,0.6,15.2,47.84626,-54.09684
2021-02-22 14:09:01+00:00,241.8198,0.6,15.2,47.84626,-54.09684
2021-02-22 14:19:01+00:00,242.5864,0.6,14.96,47.84626,-54.09684
2021-02-22 14:29:01+00:00,242.2197,0.6,14.96,47.84626,-54.09684
2021-02-22 14:39:01+00:00,240.2065,0.6,14.96,47.84626,-54.09684
2021-02-22 14:49:01+00:00,241.0431,0.6,14.96,47.84626,-54.09684
2021-02-22 14:59:01+00:00,242.2547,0.6,14.96,47.84626,-54.09684
2021-02-22 15:09:01+00:00,241.8547,0.6,14.96,47.84626,-54.09684
2021-02-22 15:19:01+00:00,239.5165,0.6,14.88,47.84626,-54.09684
2021-02-22 15:29:01+00:00,239.0598,0.6,14.88,47.84626,-54.09684
2021-02-22 15:39:01+00:00,236.9731,0.62,14.88,47.84626,-54.09684
2021-02-22 15:49:01+00:00,234.7764,0.66,14.88,47.84626,-54.09684
2021-02-22 15:59:01+00:00,232.9531,0.67,14.88,47.84626,-54.09684
2021-02-22 16:09:01+00:00,234.5831,0.69,14.88,47.84626,-54.09684
2021-02-22 16:19:01+00:00,239.2798,0.72,14.8,47.84626,-54.09684
2021-02-22 16:29:01+00:00,243.9498,0.8,14.8,47.84626,-54.09684
2021-02-22 16:39:01+00:00,249.0664,0.94,14.8,47.84626,-54.09684
2021-02-22 16:49:01+00:00,254.2881,1.25,14.8,47.84626,-54.09684
2021-02-22 16:59:01+00:00,258.7464,1.51,14.8,47.84626,-54.09684
2021-02-22 17:09:01+00:00,260.8581,1.67,14.8,47.84626,-54.09684
2021-02-22 17:19:01+00:00,262.588,1.7,14.64,47.84626,-54.09684
2021-02-22 17:29:01+00:00,264.2297,1.6,14.64,47.84626,-54.09684
2021-02-22 17:39:01+00:00,266.088,1.6,14.64,47.84626,-54.09684
2021-02-22 17:49:01+00:00,264.2381,1.55,14.64,47.84626,-54.09684
2021-02-22 17:59:01+00:00,264.6397,1.5,14.64,47.84626,-54.09684
2021-02-22 18:09:01+00:00,270.323,1.5,14.64,47.84626,-54.09684
2021-02-22 18:19:01+00:00,274.9498,1.5,14.56,47.84626,-54.09684
2021-02-22 18:29:01+00:00,277.2114,1.04,14.56,47.84626,-54.09684
2021-02-22 18:39:01+00:00,280.2064,1.48,14.56,47.84626,-54.09684
2021-02-22 18:49:01+00:00,287.1863,1.5,14.56,47.84626,-54.09684
2021-02-22 18:59:01+00:00,288.8147,1.32,14.56,47.84626,-54.09684
2021-02-22 19:09:01+00:00,287.4131,1.1,14.56,47.84626,-54.09684
2021-02-22 19:19:01+00:00,284.8214,1.06,14.32,47.84626,-54.09684
2021-02-22 19:29:01+00:00,283.8214,1.1,14.32,47.84626,-54.09684
2021-02-22 19:39:01+00:00,280.4647,1.2,14.32,47.84626,-54.09684
2021-02-22 19:49:01+00:00,280.6731,1.29,14.32,47.84626,-54.09684
2021-02-22 19:59:01+00:00,283.068,1.35,14.32,47.84626,-54.09684
2021-02-22 20:09:01+00:00,289.8064,1.39,14.32,47.84626,-54.09684
2021-02-22 20:19:01+00:00,291.9764,1.38,13.92,47.84626,-54.09684
2021-02-22 20:29:01+00:00,293.7663,1.4,13.92,47.84626,-54.09684
2021-02-22 20:39:01+00:00,292.2298,1.4,13.92,47.84626,-54.09684
2021-02-22 20:49:01+00:00,290.7014,1.48,13.92,47.84626,-54.09684
2021-02-22 20:59:01+00:00,288.0664,1.5,13.92,47.84626,-54.09684
2021-02-22 21:09:01+00:00,286.8431,1.5,13.92,47.84626,-54.09684
2021-02-22 21:19:01+00:00,280.8347,1.48,13.53,47.84626,-54.09684
2021-02-22 21:29:01+00:00,275.9697,1.47,13.53,47.84626,-54.09684
2021-02-22 21:39:01+00:00,276.2997,1.49,13.53,47.84626,-54.09684
2021-02-22 21:49:01+00:00,269.913,1.5,13.53,47.84626,-54.09684
2021-02-22 21:59:01+00:00,265.5331,1.49,13.53,47.84626,-54.09684
2021-02-22 22:09:01+00:00,268.0231,1.48,13.53,47.84626,-54.09684
2021-02-22 22:19:01+00:00,271.8247,1.49,13.13,47.84626,-54.09684
2021-02-22 22:29:01+00:00,264.1281,1.43,13.13,47.84626,-54.09684
2021-02-22 22:39:01+00:00,260.2264,1.4,13.13,47.84626,-54.09684
2021-02-22 22:49:01+00:00,260.2581,1.4,13.13,47.84626,-54.09684
2021-02-22 22:59:01+00:00,256.9981,1.4,13.13,47.84626,-54.09684
2021-02-22 23:09:01+00:00,250.6864,1.4,13.13,47.84626,-54.09684
2021-02-22 23:19:01+00:00,249.748,1.4,12.81,47.84626,-54.09684
2021-02-22 23:29:01+00:00,248.6097,1.4,12.81,47.84626,-54.09684
2021-02-22 23:39:01+00:00,243.7681,1.4,12.81,47.84626,-54.09684
2021-02-22 23:49:01+00:00,239.2581,1.4,12.81,47.84626,-54.09684
2021-02-22 23:59:01+00:00,241.0215,1.4,12.81,47.84626,-54.09684
